| time (UTC) | temp F | wind direction | speed MPH | gust MPH | rain 1hr in | rain 24hr in | rain mn in | humidity % | barometer mb |
| 20260901163043 | 70 | 165 | 1.0 | 8.0 | 0.00 | 0.00 | 0.00 | 81 | 1016.7 |
| 20260901162527 | 70 | 149 | 3.0 | 8.0 | 0.00 | 0.00 | 0.00 | 80 | 1016.7 |
| 20260901162024 | 71 | 188 | 1.0 | 6.0 | 0.00 | 0.00 | 0.00 | 82 | 1016.8 |
| 20260901161541 | 71 | 106 | 2.0 | 7.0 | 0.00 | 0.00 | 0.00 | 82 | 1016.8 |
| 20260901161022 | 71 | 80 | 3.0 | 7.0 | 0.00 | 0.00 | 0.00 | 81 | 1016.8 |
| 20260901160522 | 71 | 146 | 1.0 | 6.0 | 0.00 | 0.00 | 0.00 | 83 | 1016.8 |
| 20260901160051 | 71 | 185 | 2.0 | 6.0 | 0.00 | 0.00 | 0.00 | 83 | 1016.7 |
| 20260901155523 | 71 | 136 | 2.0 | 9.0 | 0.00 | 0.00 | 0.00 | 84 | 1016.7 |
| 20260901155025 | 71 | 121 | 4.0 | 9.0 | 0.00 | 0.00 | 0.00 | 83 | 1016.7 |
| 20260901154542 | 71 | 139 | 2.0 | 6.0 | 0.00 | 0.00 | 0.00 | 83 | 1016.7 |
| 20260901154024 | 71 | 105 | 3.0 | 5.0 | 0.00 | 0.00 | 0.00 | 82 | 1016.9 |
| 20260901153524 | 71 | 151 | 2.0 | 5.0 | 0.00 | 0.00 | 0.00 | 82 | 1017.0 |
| 20260901153045 | 71 | 73 | 1.0 | 5.0 | 0.00 | 0.00 | 0.00 | 82 | 1017.0 |
| 20260901152525 | 71 | 114 | 2.0 | 5.0 | 0.00 | 0.00 | 0.00 | 82 | 1017.1 |
| 20260901152028 | 71 | 104 | 2.0 | 5.0 | 0.00 | 0.00 | 0.00 | 82 | 1017.3 |
| 20260901151546 | 71 | 79 | 2.0 | 5.0 | 0.00 | 0.00 | 0.00 | 82 | 1017.3 |
| 20260901151025 | 71 | 138 | 2.0 | 5.0 | 0.00 | 0.00 | 0.00 | 81 | 1017.2 |
| 20260901150525 | 71 | 210 | 1.0 | 5.0 | 0.00 | 0.00 | 0.00 | 85 | 1017.1 |
| 20260901150058 | 70 | 134 | 3.0 | 5.0 | 0.00 | 0.00 | 0.00 | 86 | 1017.3 |
| 20260901145519 | 70 | 110 | 1.0 | 5.0 | 0.00 | 0.00 | 0.00 | 87 | 1017.4 |
| 20260901145026 | 70 | 106 | 1.0 | 5.0 | 0.00 | 0.00 | 0.00 | 88 | 1017.4 |
| 20260901144548 | 69 | 85 | 1.0 | 5.0 | 0.00 | 0.00 | 0.00 | 88 | 1017.4 |
| 20260901144025 | 69 | 96 | 2.0 | 7.0 | 0.00 | 0.00 | 0.00 | 89 | 1017.5 |
| 20260901143526 | 69 | 70 | 3.0 | 7.0 | 0.00 | 0.00 | 0.00 | 90 | 1017.3 |
| 20260901143047 | 69 | 118 | 2.0 | 5.0 | 0.00 | 0.00 | 0.00 | 91 | 1017.4 |
| 20260901142524 | 68 | 63 | 1.0 | 3.0 | 0.00 | 0.00 | 0.00 | 91 | 1017.6 |
| 20260901142025 | 68 | 0 | 0.0 | 2.0 | 0.00 | 0.00 | 0.00 | 92 | 1017.6 |
| 20260901141543 | 67 | 0 | 0.0 | 3.0 | 0.00 | 0.00 | 0.00 | 92 | 1017.7 |
| 20260901141022 | 67 | 109 | 1.0 | 3.0 | 0.00 | 0.00 | 0.00 | 92 | 1017.6 |
| 20260901140522 | 67 | 84 | 0.0 | 1.0 | 0.00 | 0.00 | 0.00 | 92 | 1017.7 |
| 20260901140042 | 67 | 0 | 0.0 | 0.0 | 0.00 | 0.00 | 0.00 | 92 | 1017.9 |
| 20260901135524 | 67 | 0 | 0.0 | 0.0 | 0.00 | 0.00 | 0.00 | 92 | 1017.8 |
| 20260901135023 | 67 | 0 | 0.0 | 1.0 | 0.00 | 0.00 | 0.00 | 92 | 1017.7 |
| 20260901134546 | 67 | 0 | 0.0 | 1.0 | 0.00 | 0.00 | 0.00 | 92 | 1017.8 |
| 20260901134023 | 67 | 0 | 0.0 | 0.0 | 0.00 | 0.00 | 0.00 | 92 | 1017.9 |
| 20260901133528 | 66 | 0 | 0.0 | 0.0 | 0.00 | 0.00 | 0.00 | 91 | 1017.8 |
| 20260901133043 | 66 | 0 | 0.0 | 0.0 | 0.00 | 0.00 | 0.00 | 91 | 1017.7 |
| 20260901132524 | 66 | 0 | 0.0 | 0.0 | 0.00 | 0.00 | 0.00 | 91 | 1017.5 |
| 20260901132024 | 66 | 0 | 0.0 | 0.0 | 0.00 | 0.00 | 0.00 | 91 | 1017.6 |
| 20260901131547 | 66 | 0 | 0.0 | 0.0 | 0.00 | 0.00 | 0.00 | 91 | 1017.7 |
| 20260901131026 | 66 | 0 | 0.0 | 0.0 | 0.00 | 0.00 | 0.00 | 91 | 1017.8 |
| 20260901130523 | 66 | 0 | 0.0 | 0.0 | 0.00 | 0.00 | 0.00 | 91 | 1017.8 |
| 20260901130043 | 66 | 0 | 0.0 | 0.0 | 0.00 | 0.00 | 0.00 | 91 | 1017.7 |
| 20260901125523 | 66 | 0 | 0.0 | 0.0 | 0.00 | 0.00 | 0.00 | 91 | 1017.6 |
| 20260901125025 | 66 | 0 | 0.0 | 0.0 | 0.00 | 0.00 | 0.00 | 91 | 1017.7 |
| 20260901124546 | 66 | 0 | 0.0 | 0.0 | 0.00 | 0.00 | 0.00 | 91 | 1017.6 |
| 20260901124024 | 66 | 0 | 0.0 | 0.0 | 0.00 | 0.00 | 0.00 | 91 | 1017.6 |
| 20260901123524 | 66 | 0 | 0.0 | 0.0 | 0.00 | 0.00 | 0.00 | 91 | 1017.7 |
| 20260901123044 | 66 | 0 | 0.0 | 0.0 | 0.00 | 0.00 | 0.00 | 91 | 1017.6 |
| 20260901122522 | 66 | 0 | 0.0 | 0.0 | 0.00 | 0.00 | 0.00 | 91 | 1017.8 |
| 20260901122022 | 66 | 0 | 0.0 | 0.0 | 0.00 | 0.00 | 0.00 | 91 | 1017.7 |
| 20260901121549 | 66 | 0 | 0.0 | 0.0 | 0.00 | 0.00 | 0.00 | 91 | 1017.7 |
| 20260901121024 | 66 | 0 | 0.0 | 0.0 | 0.00 | 0.00 | 0.00 | 91 | 1017.7 |
| 20260901120525 | 66 | 0 | 0.0 | 0.0 | 0.00 | 0.00 | 0.00 | 91 | 1017.5 |
| 20260901120046 | 66 | 0 | 0.0 | 0.0 | 0.00 | 0.00 | 0.00 | 91 | 1017.5 |
| 20260901115524 | 65 | 0 | 0.0 | 0.0 | 0.00 | 0.00 | 0.00 | 91 | 1017.5 |
| 20260901115024 | 65 | 0 | 0.0 | 0.0 | 0.00 | 0.00 | 0.00 | 91 | 1017.4 |
| 20260901114544 | 65 | 0 | 0.0 | 0.0 | 0.00 | 0.00 | 0.00 | 92 | 1017.5 |
| 20260901114023 | 65 | 0 | 0.0 | 0.0 | 0.00 | 0.00 | 0.00 | 92 | 1017.4 |
| 20260901113525 | 65 | 0 | 0.0 | 0.0 | 0.00 | 0.00 | 0.00 | 92 | 1017.4 |
| 20260901113054 | 65 | 0 | 0.0 | 0.0 | 0.00 | 0.00 | 0.00 | 93 | 1017.4 |
| 20260901112522 | 65 | 0 | 0.0 | 0.0 | 0.00 | 0.00 | 0.00 | 93 | 1017.5 |
| 20260901112028 | 65 | 0 | 0.0 | 0.0 | 0.00 | 0.00 | 0.00 | 93 | 1017.4 |
| 20260901111544 | 65 | 0 | 0.0 | 0.0 | 0.00 | 0.00 | 0.00 | 93 | 1017.3 |
| 20260901111024 | 65 | 0 | 0.0 | 0.0 | 0.00 | 0.00 | 0.00 | 93 | 1017.3 |
| 20260901110523 | 64 | 0 | 0.0 | 0.0 | 0.00 | 0.00 | 0.00 | 93 | 1017.3 |
| 20260901110046 | 64 | 0 | 0.0 | 0.0 | 0.00 | 0.00 | 0.00 | 93 | 1017.4 |
| 20260901105524 | 64 | 0 | 0.0 | 0.0 | 0.00 | 0.00 | 0.00 | 93 | 1017.3 |
| 20260901105026 | 64 | 0 | 0.0 | 0.0 | 0.00 | 0.00 | 0.00 | 93 | 1017.2 |
| 20260901104553 | 64 | 0 | 0.0 | 0.0 | 0.00 | 0.00 | 0.00 | 93 | 1017.1 |
| 20260901104024 | 64 | 0 | 0.0 | 0.0 | 0.00 | 0.00 | 0.00 | 93 | 1017.0 |
| 20260901103522 | 64 | 0 | 0.0 | 0.0 | 0.00 | 0.00 | 0.00 | 93 | 1017.0 |
| 20260901103042 | 64 | 0 | 0.0 | 0.0 | 0.00 | 0.00 | 0.00 | 93 | 1017.0 |
| 20260901102525 | 64 | 0 | 0.0 | 0.0 | 0.00 | 0.00 | 0.00 | 93 | 1016.9 |
| 20260901102024 | 64 | 0 | 0.0 | 0.0 | 0.00 | 0.00 | 0.00 | 92 | 1016.8 |
| 20260901101541 | 64 | 0 | 0.0 | 0.0 | 0.00 | 0.00 | 0.00 | 92 | 1016.8 |
| 20260901101025 | 64 | 0 | 0.0 | 0.0 | 0.00 | 0.00 | 0.00 | 92 | 1016.7 |
| 20260901100524 | 64 | 0 | 0.0 | 0.0 | 0.00 | 0.00 | 0.00 | 92 | 1016.7 |
| 20260901100051 | 64 | 0 | 0.0 | 0.0 | 0.00 | 0.00 | 0.00 | 92 | 1016.7 |
| 20260901095523 | 64 | 0 | 0.0 | 0.0 | 0.00 | 0.00 | 0.00 | 92 | 1016.7 |
| 20260901095024 | 64 | 0 | 0.0 | 0.0 | 0.00 | 0.00 | 0.00 | 92 | 1016.7 |
| 20260901094542 | 64 | 0 | 0.0 | 0.0 | 0.00 | 0.00 | 0.00 | 92 | 1016.7 |
| 20260901094022 | 64 | 0 | 0.0 | 0.0 | 0.00 | 0.00 | 0.00 | 92 | 1016.8 |
| 20260901093522 | 64 | 0 | 0.0 | 0.0 | 0.00 | 0.00 | 0.00 | 92 | 1016.8 |
| 20260901093042 | 64 | 0 | 0.0 | 0.0 | 0.00 | 0.00 | 0.00 | 92 | 1016.7 |
| 20260901092524 | 64 | 0 | 0.0 | 0.0 | 0.00 | 0.00 | 0.00 | 91 | 1016.7 |
| 20260901092024 | 64 | 0 | 0.0 | 0.0 | 0.00 | 0.00 | 0.00 | 91 | 1016.8 |
| 20260901091547 | 64 | 0 | 0.0 | 0.0 | 0.00 | 0.00 | 0.00 | 91 | 1016.6 |
| 20260901091023 | 64 | 0 | 0.0 | 0.0 | 0.00 | 0.00 | 0.00 | 91 | 1016.6 |
| 20260901090525 | 64 | 0 | 0.0 | 0.0 | 0.00 | 0.00 | 0.00 | 91 | 1016.8 |
| 20260901090046 | 64 | 0 | 0.0 | 0.0 | 0.00 | 0.00 | 0.00 | 91 | 1016.7 |
| 20260901085525 | 64 | 0 | 0.0 | 0.0 | 0.00 | 0.00 | 0.00 | 91 | 1016.8 |
| 20260901085023 | 65 | 0 | 0.0 | 0.0 | 0.00 | 0.00 | 0.00 | 91 | 1016.9 |
| 20260901084554 | 65 | 0 | 0.0 | 0.0 | 0.00 | 0.00 | 0.00 | 91 | 1016.9 |
| 20260901084024 | 64 | 0 | 0.0 | 0.0 | 0.00 | 0.00 | 0.00 | 91 | 1016.9 |
| 20260901083525 | 65 | 0 | 0.0 | 0.0 | 0.00 | 0.00 | 0.00 | 91 | 1017.0 |
| 20260901083042 | 65 | 0 | 0.0 | 0.0 | 0.00 | 0.00 | 0.00 | 91 | 1017.1 |
| 20260901082524 | 65 | 0 | 0.0 | 0.0 | 0.00 | 0.00 | 0.00 | 91 | 1017.4 |
| 20260901082024 | 65 | 0 | 0.0 | 0.0 | 0.00 | 0.00 | 0.00 | 91 | 1017.4 |
| 20260901081544 | 65 | 0 | 0.0 | 0.0 | 0.00 | 0.00 | 0.00 | 91 | 1017.4 |
| 20260901081026 | 65 | 0 | 0.0 | 0.0 | 0.00 | 0.00 | 0.00 | 91 | 1017.4 |
| 20260901080525 | 65 | 0 | 0.0 | 0.0 | 0.00 | 0.00 | 0.00 | 91 | 1017.4 |
| 20260901080052 | 65 | 0 | 0.0 | 0.0 | 0.00 | 0.00 | 0.00 | 90 | 1017.5 |
| 20260901075525 | 65 | 0 | 0.0 | 0.0 | 0.00 | 0.00 | 0.00 | 90 | 1017.5 |
| 20260901075024 | 65 | 0 | 0.0 | 0.0 | 0.00 | 0.00 | 0.00 | 90 | 1017.4 |
| 20260901074554 | 65 | 0 | 0.0 | 0.0 | 0.00 | 0.00 | 0.00 | 90 | 1017.4 |
| 20260901074027 | 65 | 0 | 0.0 | 0.0 | 0.00 | 0.00 | 0.00 | 90 | 1017.5 |
| 20260901073518 | 65 | 0 | 0.0 | 0.0 | 0.00 | 0.00 | 0.00 | 90 | 1017.5 |
| 20260901073042 | 65 | 0 | 0.0 | 0.0 | 0.00 | 0.00 | 0.00 | 90 | 1017.5 |
| 20260901072523 | 65 | 0 | 0.0 | 0.0 | 0.00 | 0.00 | 0.00 | 90 | 1017.5 |
| 20260901072024 | 65 | 0 | 0.0 | 0.0 | 0.00 | 0.00 | 0.00 | 90 | 1017.5 |
| 20260901071548 | 65 | 0 | 0.0 | 0.0 | 0.00 | 0.00 | 0.00 | 90 | 1017.6 |
| 20260901071024 | 65 | 0 | 0.0 | 0.0 | 0.00 | 0.00 | 0.00 | 90 | 1017.7 |
| 20260901070525 | 65 | 0 | 0.0 | 0.0 | 0.00 | 0.00 | 0.00 | 90 | 1017.7 |
| 20260901070044 | 65 | 0 | 0.0 | 0.0 | 0.00 | 0.00 | 0.00 | 90 | 1017.7 |
| 20260901065519 | 65 | 0 | 0.0 | 0.0 | 0.00 | 0.00 | 0.00 | 90 | 1017.7 |
| 20260901065027 | 65 | 0 | 0.0 | 0.0 | 0.00 | 0.00 | 0.00 | 90 | 1017.8 |
| 20260901064549 | 65 | 0 | 0.0 | 0.0 | 0.00 | 0.00 | 0.00 | 90 | 1017.8 |
| 20260901064025 | 65 | 173 | 0.0 | 0.0 | 0.00 | 0.00 | 0.00 | 90 | 1017.7 |
| 20260901063523 | 65 | 0 | 0.0 | 0.0 | 0.00 | 0.00 | 0.00 | 90 | 1017.8 |
| 20260901063105 | 65 | 0 | 0.0 | 0.0 | 0.00 | 0.00 | 0.00 | 90 | 1017.8 |
| 20260901062524 | 65 | 196 | 0.0 | 0.0 | 0.00 | 0.00 | 0.00 | 90 | 1017.7 |
| 20260901062025 | 65 | 0 | 0.0 | 0.0 | 0.00 | 0.00 | 0.00 | 90 | 1017.9 |
| 20260901061548 | 65 | 0 | 0.0 | 0.0 | 0.00 | 0.00 | 0.00 | 90 | 1017.7 |
| 20260901061024 | 65 | 0 | 0.0 | 0.0 | 0.00 | 0.00 | 0.00 | 90 | 1017.8 |
| 20260901060525 | 65 | 0 | 0.0 | 0.0 | 0.00 | 0.00 | 0.00 | 90 | 1017.7 |
| 20260901060044 | 65 | 0 | 0.0 | 0.0 | 0.00 | 0.00 | 0.00 | 90 | 1017.8 |
| 20260901055523 | 65 | 0 | 0.0 | 0.0 | 0.00 | 0.00 | 0.00 | 89 | 1017.7 |
| 20260901055028 | 65 | 202 | 0.0 | 1.0 | 0.00 | 0.00 | 0.00 | 90 | 1017.7 |
| 20260901054545 | 65 | 0 | 0.0 | 1.0 | 0.00 | 0.00 | 0.00 | 90 | 1017.7 |
| 20260901054030 | 65 | 0 | 0.0 | 0.0 | 0.00 | 0.00 | 0.00 | 89 | 1017.7 |
| 20260901053525 | 65 | 0 | 0.0 | 1.0 | 0.00 | 0.00 | 0.00 | 90 | 1017.8 |
| 20260901053052 | 65 | 0 | 0.0 | 1.0 | 0.00 | 0.00 | 0.00 | 89 | 1017.9 |
| 20260901052528 | 65 | 0 | 0.0 | 0.0 | 0.00 | 0.00 | 0.00 | 89 | 1018.0 |
| 20260901052021 | 65 | 0 | 0.0 | 0.0 | 0.00 | 0.00 | 0.00 | 89 | 1018.0 |
| 20260901051544 | 65 | 0 | 0.0 | 0.0 | 0.00 | 0.00 | 0.00 | 89 | 1018.1 |
| 20260901051025 | 65 | 0 | 0.0 | 0.0 | 0.00 | 0.00 | 0.00 | 88 | 1018.1 |
| 20260901050525 | 65 | 0 | 0.0 | 0.0 | 0.00 | 0.00 | 0.00 | 88 | 1018.0 |
| 20260901050048 | 65 | 0 | 0.0 | 0.0 | 0.00 | 0.00 | 0.00 | 88 | 1017.9 |
| 20260901045524 | 65 | 0 | 0.0 | 0.0 | 0.00 | 0.01 | 0.00 | 88 | 1017.9 |
| 20260901045024 | 65 | 0 | 0.0 | 0.0 | 0.00 | 0.01 | 0.00 | 88 | 1017.9 |
| 20260901044546 | 65 | 0 | 0.0 | 1.0 | 0.00 | 0.01 | 0.00 | 88 | 1018.1 |
| 20260901044025 | 65 | 0 | 0.0 | 2.0 | 0.00 | 0.01 | 0.00 | 88 | 1018.1 |
| 20260901043524 | 65 | 0 | 0.0 | 2.0 | 0.00 | 0.01 | 0.00 | 88 | 1017.9 |
| 20260901043052 | 65 | 229 | 0.0 | 2.0 | 0.00 | 0.01 | 0.00 | 88 | 1018.0 |
| 20260901042530 | 65 | 0 | 0.0 | 2.0 | 0.00 | 0.01 | 0.00 | 88 | 1018.1 |
| 20260901042025 | 65 | 0 | 0.0 | 0.0 | 0.00 | 0.01 | 0.00 | 88 | 1018.1 |
| 20260901041541 | 65 | 0 | 0.0 | 0.0 | 0.00 | 0.01 | 0.00 | 88 | 1018.3 |
| 20260901041025 | 65 | 0 | 0.0 | 0.0 | 0.00 | 0.01 | 0.00 | 88 | 1018.1 |
| 20260901040525 | 65 | 162 | 0.0 | 0.0 | 0.00 | 0.01 | 0.00 | 87 | 1018.2 |
| 20260901040048 | 66 | 0 | 0.0 | 2.0 | 0.00 | 0.01 | 0.00 | 88 | 1018.2 |
| 20260901035525 | 65 | 0 | 0.0 | 2.0 | 0.00 | 0.25 | 0.01 | 87 | 1018.2 |
| 20260901035027 | 66 | 0 | 0.0 | 0.0 | 0.00 | 0.25 | 0.01 | 87 | 1018.1 |
| 20260901034542 | 66 | 0 | 0.0 | 1.0 | 0.00 | 0.25 | 0.01 | 87 | 1018.2 |
| 20260901034025 | 66 | 0 | 0.0 | 1.0 | 0.00 | 0.25 | 0.01 | 87 | 1018.2 |
| 20260901033525 | 66 | 0 | 0.0 | 1.0 | 0.00 | 0.25 | 0.01 | 87 | 1018.1 |
| 20260901033106 | 66 | 124 | 0.0 | 1.0 | 0.00 | 0.25 | 0.01 | 87 | 1018.1 |
| 20260901032525 | 66 | 0 | 0.0 | 2.0 | 0.00 | 0.25 | 0.01 | 87 | 1018.1 |
| 20260901032025 | 66 | 0 | 0.0 | 2.0 | 0.00 | 0.25 | 0.01 | 87 | 1018.3 |
| 20260901031543 | 66 | 0 | 0.0 | 1.0 | 0.00 | 0.25 | 0.01 | 87 | 1018.3 |
| 20260901031025 | 66 | 0 | 0.0 | 1.0 | 0.00 | 0.25 | 0.01 | 86 | 1018.3 |
| 20260901030521 | 66 | 103 | 0.0 | 2.0 | 0.00 | 0.25 | 0.01 | 87 | 1018.3 |
| 20260901030042 | 66 | 0 | 0.0 | 2.0 | 0.00 | 0.25 | 0.01 | 87 | 1018.4 |
| 20260901025529 | 66 | 213 | 0.0 | 3.0 | 0.00 | 0.28 | 0.01 | 86 | 1018.4 |
| 20260901025027 | 66 | 142 | 0.0 | 3.0 | 0.00 | 0.28 | 0.01 | 86 | 1018.3 |
| 20260901024545 | 66 | 136 | 0.0 | 3.0 | 0.00 | 0.28 | 0.01 | 87 | 1018.4 |
| 20260901024026 | 66 | 122 | 1.0 | 3.0 | 0.00 | 0.28 | 0.01 | 86 | 1018.3 |
| 20260901023527 | 66 | 127 | 0.0 | 2.0 | 0.00 | 0.28 | 0.01 | 86 | 1018.5 |
| 20260901023052 | 66 | 167 | 0.0 | 2.0 | 0.00 | 0.28 | 0.01 | 86 | 1018.5 |
| 20260901022524 | 66 | 0 | 0.0 | 1.0 | 0.00 | 0.28 | 0.01 | 86 | 1018.6 |
| 20260901022022 | 66 | 0 | 0.0 | 1.0 | 0.00 | 0.28 | 0.01 | 86 | 1018.7 |
| 20260901021551 | 66 | 191 | 0.0 | 3.0 | 0.00 | 0.28 | 0.01 | 86 | 1018.6 |
| 20260901021025 | 66 | 138 | 1.0 | 3.0 | 0.00 | 0.28 | 0.01 | 86 | 1018.7 |
| 20260901020525 | 66 | 76 | 1.0 | 3.0 | 0.00 | 0.28 | 0.01 | 86 | 1018.8 |
| 20260901020047 | 66 | 94 | 1.0 | 3.0 | 0.00 | 0.28 | 0.01 | 86 | 1018.7 |
| 20260901015528 | 67 | 173 | 0.0 | 1.0 | 0.00 | 0.28 | 0.01 | 86 | 1018.8 |
| 20260901015025 | 67 | 144 | 0.0 | 2.0 | 0.00 | 0.28 | 0.01 | 86 | 1018.8 |
| 20260901014556 | 67 | 139 | 0.0 | 2.0 | 0.00 | 0.28 | 0.01 | 86 | 1018.8 |
| 20260901014024 | 67 | 198 | 0.0 | 2.0 | 0.00 | 0.28 | 0.01 | 86 | 1018.8 |
| 20260901013519 | 67 | 0 | 0.0 | 2.0 | 0.00 | 0.28 | 0.01 | 86 | 1018.8 |
| 20260901013045 | 67 | 172 | 1.0 | 2.0 | 0.00 | 0.28 | 0.01 | 86 | 1018.7 |
| 20260901012525 | 67 | 0 | 1.0 | 3.0 | 0.00 | 0.28 | 0.01 | 85 | 1018.7 |
| 20260901012025 | 67 | 106 | 0.0 | 3.0 | 0.00 | 0.28 | 0.01 | 85 | 1018.7 |
| 20260901011546 | 67 | 123 | 1.0 | 3.0 | 0.00 | 0.28 | 0.01 | 85 | 1018.6 |
| 20260901011025 | 67 | 158 | 1.0 | 3.0 | 0.00 | 0.28 | 0.01 | 85 | 1018.6 |
| 20260901010526 | 68 | 127 | 0.0 | 2.0 | 0.00 | 0.28 | 0.01 | 85 | 1018.6 |
| 20260901010045 | 68 | 218 | 0.0 | 3.0 | 0.00 | 0.28 | 0.01 | 85 | 1018.6 |
| 20260901005527 | 68 | 181 | 1.0 | 3.0 | 0.00 | 0.28 | 0.01 | 85 | 1018.6 |
| 20260901005025 | 68 | 238 | 0.0 | 4.0 | 0.00 | 0.28 | 0.01 | 84 | 1018.6 |
| 20260901004600 | 68 | 147 | 1.0 | 4.0 | 0.00 | 0.28 | 0.01 | 84 | 1018.6 |
| 20260901004024 | 68 | 110 | 0.0 | 4.0 | 0.00 | 0.28 | 0.01 | 84 | 1018.6 |
| 20260901003525 | 68 | 0 | 1.0 | 3.0 | 0.00 | 0.28 | 0.01 | 84 | 1018.6 |
| 20260901003044 | 68 | 0 | 0.0 | 3.0 | 0.00 | 0.28 | 0.01 | 83 | 1018.7 |
| 20260901002524 | 68 | 177 | 1.0 | 3.0 | 0.00 | 0.28 | 0.01 | 83 | 1018.7 |
| 20260901002023 | 69 | 214 | 0.0 | 3.0 | 0.00 | 0.28 | 0.01 | 83 | 1018.5 |
| 20260901001549 | 69 | 229 | 1.0 | 4.0 | 0.00 | 0.28 | 0.01 | 82 | 1018.6 |
| 20260901001023 | 69 | 75 | 2.0 | 4.0 | 0.00 | 0.28 | 0.01 | 82 | 1018.7 |
| 20260901000525 | 69 | 126 | 1.0 | 4.0 | 0.00 | 0.28 | 0.01 | 82 | 1018.6 |
| 20260901000058 | 69 | 250 | 1.0 | 4.0 | 0.00 | 0.28 | 0.01 | 81 | 1018.7 |
| 20260831235525 | 69 | 131 | 1.0 | 2.0 | 0.00 | 0.28 | 0.01 | 80 | 1018.6 |
| 20260831235028 | 69 | 109 | 0.0 | 3.0 | 0.00 | 0.28 | 0.01 | 80 | 1018.8 |
| 20260831234543 | 69 | 191 | 0.0 | 3.0 | 0.00 | 0.28 | 0.01 | 79 | 1018.5 |
| 20260831234023 | 69 | 184 | 1.0 | 2.0 | 0.00 | 0.28 | 0.01 | 79 | 1018.5 |
| 20260831233523 | 69 | 219 | 0.0 | 4.0 | 0.00 | 0.28 | 0.01 | 79 | 1018.6 |
| 20260831233046 | 70 | 97 | 0.0 | 4.0 | 0.00 | 0.28 | 0.01 | 79 | 1018.7 |
| 20260831232526 | 70 | 165 | 1.0 | 3.0 | 0.00 | 0.28 | 0.01 | 78 | 1018.7 |
| 20260831232026 | 70 | 0 | 0.0 | 1.0 | 0.00 | 0.28 | 0.01 | 78 | 1018.6 |
| 20260831231544 | 70 | 158 | 0.0 | 2.0 | 0.00 | 0.28 | 0.01 | 77 | 1018.7 |
| 20260831231025 | 70 | 196 | 1.0 | 2.0 | 0.00 | 0.28 | 0.01 | 77 | 1018.6 |
| 20260831230556 | 70 | 0 | 0.0 | 2.0 | 0.00 | 0.28 | 0.01 | 78 | 1018.5 |
| 20260831230045 | 70 | 200 | 1.0 | 2.0 | 0.00 | 0.28 | 0.01 | 77 | 1018.5 |
| 20260831225525 | 70 | 172 | 0.0 | 2.0 | 0.00 | 0.28 | 0.01 | 78 | 1018.6 |
| 20260831225030 | 70 | 131 | 1.0 | 2.0 | 0.00 | 0.28 | 0.01 | 78 | 1018.6 |
| 20260831224546 | 70 | 128 | 0.0 | 2.0 | 0.00 | 0.28 | 0.01 | 78 | 1018.6 |
| 20260831224025 | 71 | 131 | 1.0 | 3.0 | 0.00 | 0.28 | 0.01 | 78 | 1018.5 |
| 20260831223529 | 71 | 123 | 1.0 | 4.0 | 0.00 | 0.28 | 0.01 | 79 | 1018.7 |
| 20260831223045 | 71 | 119 | 1.0 | 4.0 | 0.00 | 0.28 | 0.01 | 78 | 1018.6 |
| 20260831222524 | 71 | 136 | 2.0 | 6.0 | 0.00 | 0.28 | 0.01 | 78 | 1018.5 |
| 20260831222026 | 71 | 84 | 2.0 | 6.0 | 0.00 | 0.28 | 0.01 | 77 | 1018.6 |
| 20260831221543 | 71 | 150 | 3.0 | 6.0 | 0.00 | 0.28 | 0.01 | 76 | 1018.6 |
| 20260831221024 | 71 | 130 | 2.0 | 6.0 | 0.00 | 0.28 | 0.01 | 76 | 1018.8 |
| 20260831220520 | 71 | 141 | 3.0 | 6.0 | 0.00 | 0.28 | 0.01 | 76 | 1018.7 |
| 20260831220044 | 71 | 104 | 1.0 | 6.0 | 0.00 | 0.28 | 0.01 | 76 | 1018.7 |
| 20260831215524 | 71 | 98 | 2.0 | 5.0 | 0.00 | 0.28 | 0.01 | 76 | 1018.7 |
| 20260831215026 | 71 | 123 | 0.0 | 5.0 | 0.00 | 0.28 | 0.01 | 76 | 1018.7 |
| 20260831214545 | 71 | 143 | 1.0 | 6.0 | 0.00 | 0.28 | 0.01 | 76 | 1018.7 |
| 20260831214024 | 71 | 124 | 3.0 | 6.0 | 0.00 | 0.28 | 0.01 | 75 | 1018.7 |
| 20260831213525 | 71 | 143 | 4.0 | 6.0 | 0.00 | 0.28 | 0.01 | 75 | 1018.6 |
| 20260831213043 | 71 | 129 | 4.0 | 8.0 | 0.00 | 0.28 | 0.01 | 74 | 1018.7 |
| 20260831212526 | 71 | 103 | 3.0 | 8.0 | 0.00 | 0.28 | 0.01 | 74 | 1018.6 |
| 20260831212028 | 71 | 122 | 3.0 | 5.0 | 0.00 | 0.28 | 0.01 | 75 | 1018.6 |
| 20260831211543 | 71 | 91 | 2.0 | 6.0 | 0.00 | 0.28 | 0.01 | 75 | 1018.7 |
| 20260831211022 | 72 | 127 | 4.0 | 7.0 | 0.00 | 0.28 | 0.01 | 74 | 1018.7 |
| 20260831210523 | 72 | 186 | 2.0 | 8.0 | 0.00 | 0.28 | 0.01 | 74 | 1018.7 |
| 20260831210046 | 72 | 139 | 3.0 | 8.0 | 0.00 | 0.28 | 0.01 | 74 | 1018.7 |
| 20260831205525 | 72 | 127 | 2.0 | 5.0 | 0.00 | 0.28 | 0.01 | 73 | 1018.7 |
| 20260831205025 | 73 | 146 | 1.0 | 3.0 | 0.00 | 0.28 | 0.01 | 74 | 1018.7 |
| 20260831204545 | 73 | 129 | 1.0 | 3.0 | 0.00 | 0.28 | 0.01 | 74 | 1018.6 |
| 20260831204026 | 73 | 108 | 1.0 | 7.0 | 0.00 | 0.28 | 0.01 | 74 | 1018.5 |
| 20260831203524 | 73 | 118 | 2.0 | 7.0 | 0.00 | 0.28 | 0.01 | 73 | 1018.6 |
| 20260831203044 | 73 | 120 | 4.0 | 7.0 | 0.00 | 0.28 | 0.01 | 72 | 1018.6 |
| 20260831202526 | 73 | 140 | 2.0 | 5.0 | 0.00 | 0.28 | 0.01 | 73 | 1018.5 |
| 20260831202026 | 72 | 0 | 2.0 | 5.0 | 0.00 | 0.28 | 0.01 | 73 | 1018.6 |
| 20260831201546 | 72 | 119 | 2.0 | 4.0 | 0.00 | 0.28 | 0.01 | 73 | 1018.7 |
| 20260831201025 | 73 | 110 | 2.0 | 5.0 | 0.00 | 0.28 | 0.01 | 72 | 1018.5 |
| 20260831200525 | 73 | 106 | 2.0 | 5.0 | 0.00 | 0.28 | 0.01 | 72 | 1018.6 |
| 20260831200049 | 73 | 119 | 3.0 | 5.0 | 0.00 | 0.28 | 0.01 | 73 | 1018.5 |
| 20260831195524 | 73 | 117 | 3.0 | 6.0 | 0.00 | 0.28 | 0.01 | 71 | 1018.6 |
| 20260831195026 | 73 | 132 | 1.0 | 6.0 | 0.00 | 0.28 | 0.01 | 72 | 1018.7 |
| 20260831194605 | 73 | 131 | 3.0 | 6.0 | 0.00 | 0.28 | 0.01 | 71 | 1018.9 |
| 20260831194021 | 73 | 106 | 1.0 | 6.0 | 0.00 | 0.28 | 0.01 | 71 | 1018.9 |
| 20260831193519 | 73 | 102 | 3.0 | 6.0 | 0.00 | 0.28 | 0.01 | 70 | 1018.9 |
| 20260831193046 | 73 | 158 | 1.0 | 7.0 | 0.00 | 0.28 | 0.01 | 71 | 1018.9 |
| 20260831192524 | 73 | 80 | 2.0 | 7.0 | 0.00 | 0.28 | 0.01 | 71 | 1019.0 |
| 20260831192028 | 73 | 125 | 3.0 | 6.0 | 0.00 | 0.28 | 0.01 | 69 | 1019.1 |
| 20260831191546 | 74 | 83 | 1.0 | 4.0 | 0.00 | 0.28 | 0.01 | 68 | 1019.0 |
| 20260831191027 | 74 | 107 | 1.0 | 3.0 | 0.00 | 0.28 | 0.01 | 67 | 1019.1 |
| 20260831190524 | 74 | 58 | 2.0 | 4.0 | 0.00 | 0.28 | 0.01 | 66 | 1019.2 |
| 20260831190107 | 74 | 109 | 2.0 | 4.0 | 0.00 | 0.28 | 0.01 | 65 | 1019.3 |
| 20260831185525 | 74 | 101 | 2.0 | 4.0 | 0.00 | 0.28 | 0.01 | 65 | 1019.4 |
| 20260831185023 | 74 | 108 | 1.0 | 3.0 | 0.00 | 0.28 | 0.01 | 66 | 1019.4 |
| 20260831184543 | 74 | 135 | 1.0 | 3.0 | 0.00 | 0.28 | 0.01 | 64 | 1019.5 |
| 20260831184028 | 74 | 156 | 2.0 | 5.0 | 0.00 | 0.28 | 0.01 | 64 | 1019.6 |
| 20260831183523 | 74 | 142 | 3.0 | 5.0 | 0.00 | 0.28 | 0.01 | 64 | 1019.6 |
| 20260831183041 | 75 | 212 | 1.0 | 4.0 | 0.00 | 0.28 | 0.01 | 65 | 1019.5 |
| 20260831182524 | 74 | 131 | 2.0 | 4.0 | 0.00 | 0.28 | 0.01 | 65 | 1019.5 |
| 20260831182025 | 75 | 115 | 1.0 | 4.0 | 0.00 | 0.28 | 0.01 | 63 | 1019.5 |
| 20260831181548 | 75 | 120 | 1.0 | 5.0 | 0.00 | 0.28 | 0.01 | 64 | 1019.5 |
| 20260831181024 | 75 | 0 | 0.0 | 5.0 | 0.00 | 0.28 | 0.01 | 64 | 1019.5 |
| 20260831180522 | 75 | 77 | 1.0 | 3.0 | 0.00 | 0.28 | 0.01 | 63 | 1019.5 |
| 20260831180046 | 75 | 210 | 1.0 | 3.0 | 0.00 | 0.28 | 0.01 | 63 | 1019.5 |
| 20260831175521 | 75 | 225 | 1.0 | 3.0 | 0.00 | 0.28 | 0.01 | 63 | 1019.7 |
| 20260831175021 | 75 | 159 | 1.0 | 3.0 | 0.00 | 0.28 | 0.01 | 63 | 1019.8 |
| 20260831174543 | 75 | 0 | 0.0 | 3.0 | 0.00 | 0.28 | 0.01 | 65 | 1019.8 |
| 20260831174024 | 75 | 247 | 0.0 | 3.0 | 0.00 | 0.28 | 0.01 | 65 | 1019.7 |
| 20260831173524 | 75 | 214 | 2.0 | 3.0 | 0.00 | 0.28 | 0.01 | 62 | 1019.8 |
| 20260831173046 | 75 | 167 | 1.0 | 3.0 | 0.00 | 0.28 | 0.01 | 63 | 1019.8 |
| 20260831172524 | 74 | 207 | 0.0 | 4.0 | 0.00 | 0.28 | 0.01 | 64 | 1019.8 |
| 20260831172025 | 74 | 193 | 2.0 | 4.0 | 0.00 | 0.28 | 0.01 | 63 | 1019.7 |
| 20260831171544 | 74 | 224 | 0.0 | 3.0 | 0.00 | 0.28 | 0.01 | 64 | 1019.8 |
| 20260831171024 | 74 | 99 | 0.0 | 3.0 | 0.00 | 0.28 | 0.01 | 67 | 1019.8 |
| 20260831170521 | 73 | 136 | 1.0 | 3.0 | 0.00 | 0.28 | 0.01 | 66 | 1019.7 |
| 20260831170044 | 73 | 101 | 1.0 | 3.0 | 0.00 | 0.28 | 0.01 | 66 | 1019.8 |
| 20260831165525 | 73 | 65 | 1.0 | 3.0 | 0.00 | 0.28 | 0.01 | 67 | 1019.8 |
| 20260831165023 | 73 | 150 | 2.0 | 3.0 | 0.00 | 0.28 | 0.01 | 66 | 1019.9 |
| 20260831164551 | 74 | 192 | 0.0 | 2.0 | 0.00 | 0.28 | 0.01 | 66 | 1019.9 |
| 20260831164025 | 74 | 101 | 0.0 | 2.0 | 0.00 | 0.28 | 0.01 | 65 | 1019.9 |
| 20260831163525 | 74 | 78 | 0.0 | 3.0 | 0.00 | 0.28 | 0.01 | 64 | 1020.0 |